Location: Pine Mountain Observatory
(43.7910°N, 120.9377°W)
Time: 18:06:17
(UTC-07:00)

Explorer 11/Cluster Stage 4 - Pass Details

Date: 04 June 2019
Orbit: 467 x 1260 km, 28.8° (Epoch: 17 June)

Event Time Altitude Azimuth Distance (km) Brightness Sun altitude
Rises 21:22:56 0° 207° (SSW) 4,081 10.1 -6.9°
Reaches altitude 10° 21:27:23 10° 185° (S) 3,194 9.3 -7.5°
Maximum altitude 21:31:19 14° 156° (SSE) 2,901 8.9 -8.0°
Drops below altitude 10° 21:35:16 10° 127° (SE) 3,219 9.0 -8.5°
Enters shadow 21:35:27 10° 126° (SE) 3,246 9.0 -8.5°
Sets 21:39:47 0° 105° (ESE) 4,133 - -9.1°
